User: anonymous   Login
Location: Beverley
(50.2667°N, 107.9667°W)
Time: 16:31:13
(UTC+00:00)
Language:

IRIDIUM 175 - Orbit

View from above orbital plane
View from above orbital plane
View from above satellite
View from above satellite

Ground track
Ground track

The orbit data is extracted from the following two-line orbital elements,

1 43928U 19002G   22333.68831095  .00000593  00000-0  90201-4 0  9994
2 43928  86.6131 174.8970 0002289  86.0543 274.0936 14.72260598208630
Epoch (UTC): 29 November 2022 16:31:10
Eccentricity: 0.0002289
inclination: 86.6131°
perigee height: 652 km
apogee height: 655 km
right ascension of ascending node: 174.8970°
argument of perigee: 86.0543°
revolutions per day: 14.72260598
mean anomaly at epoch: 274.0936°
orbit number at epoch: 20863

The dashed part of the orbit path shows where the satellite is in the earth's shadow,  

DLR